Date String (YYYY-MM-DD hh:mm:ss) UTC,Instrument flags,absolute air pressure of the measurement (hPa),sample flow rate (lpm),inlet stack bypass flow (lpm),air temperature of the measurement (°C),ambient temperature measured by the external sensor (°C),aerosol sample conditioner tube jacket temperature (°C),OPC LED temperature (°C),internal box temperature (°C),relative humidity of the measurement (%),span deviation,mass concentration of particles derived from Lorenz-Mie calculation of OPC scattering (μg/m³),mass concentration of particles derived from Lorenz-Mie calculation of OPC scattering (μg/m³),mass concentration of particles derived from Lorenz-Mie calculation of OPC scattering (μg/m³)
DateTimeUTC,F1_M11,P_M11,Q1_M11,Q2_M11,T1_M11,T2_M11,T3_M11,T4_M11,T5_M11,U1_M11,ZSPAN_M11,X0_M11,X2_M11,X1_M11
2023-07-04 03:00:00,SystemResetWarning,0831.3,4.99,000.00,029.0,027.6,000.0,037.4,030.7,17.4,0000.0,0006.74,0003.25,0002.88
2023-07-04 03:01:00,SystemResetWarning,0831.3,5.00,000.00,029.0,027.8,000.0,037.4,030.7,17.4,0000.0,0006.87,0003.28,0002.93
2023-07-04 03:02:00,SystemResetWarning,0831.3,5.00,000.00,029.1,027.9,000.0,037.4,030.8,17.6,0000.0,0006.93,0003.29,0002.96
2023-07-04 03:03:00,SystemResetWarning,0831.3,5.00,000.00,029.1,026.5,000.0,037.3,030.7,17.4,0000.0,0007.07,0003.32,0002.97
2023-07-04 03:04:00,SystemResetWarning,0831.3,5.01,000.00,029.0,025.4,000.0,037.2,030.5,17.6,0000.0,0006.91,0003.31,0002.99
2023-07-04 03:05:00,SystemResetWarning,0831.3,5.00,000.00,029.0,025.5,000.0,037.2,030.3,17.6,0000.0,0006.78,0003.31,0003.01
2023-07-04 03:06:00,SystemResetWarning,0831.3,5.01,000.00,028.9,025.8,000.0,037.3,030.3,17.8,0000.0,0006.61,0003.30,0003.02
2023-07-04 03:07:00,SystemResetWarning,0831.3,5.01,000.00,028.9,026.2,000.0,037.3,030.4,17.8,0000.0,0006.11,0003.30,0003.03
2023-07-04 03:08:00,SystemResetWarning,0831.3,5.00,000.00,028.9,026.6,000.0,037.3,030.4,17.9,0000.0,0004.88,0003.30,0003.04
2023-07-04 03:09:00,SystemResetWarning,0831.3,4.99,000.00,028.9,026.9,000.0,037.4,030.5,17.9,0000.0,0004.95,0003.32,0003.04
2023-07-04 03:10:00,SystemResetWarning,0831.3,5.00,000.00,028.9,027.2,000.0,037.4,030.6,18.0,0000.0,0004.92,0003.32,0003.05
2023-07-04 03:11:00,SystemResetWarning,0831.3,5.00,000.00,029.0,027.4,000.0,037.4,030.7,18.1,0000.0,0004.93,0003.33,0003.04
2023-07-04 03:12:00,SystemResetWarning,0831.3,5.00,000.00,029.0,027.7,000.0,037.4,030.7,18.2,0000.0,0004.89,0003.33,0003.02
2023-07-04 03:13:00,SystemResetWarning,0831.4,4.98,000.00,029.1,027.8,000.0,037.5,030.8,18.5,0000.0,0004.79,0003.33,0003.03
2023-07-04 03:14:00,SystemResetWarning,0831.4,4.99,000.00,029.1,026.9,000.0,037.4,030.7,18.7,0000.0,0004.60,0003.32,0003.07
2023-07-04 03:15:00,SystemResetWarning,0831.4,5.01,000.00,029.0,025.4,000.0,037.3,030.5,18.7,0000.0,0004.63,0003.35,0003.10
2023-07-04 03:16:00,SystemResetWarning,0831.4,5.01,000.00,029.0,025.4,000.0,037.2,030.4,18.2,0000.0,0005.14,0003.36,0003.11
2023-07-04 03:17:00,SystemResetWarning,0831.5,4.99,000.00,028.9,025.7,000.0,037.3,030.3,18.4,0000.0,0005.32,0003.39,0003.13
2023-07-04 03:18:00,SystemResetWarning,0831.5,5.00,000.00,028.9,026.1,000.0,037.3,030.3,18.5,0000.0,0005.51,0003.43,0003.13
2023-07-04 03:19:00,SystemResetWarning,0831.5,5.00,000.00,028.9,026.5,000.0,037.4,030.4,18.6,0000.0,0005.51,0003.44,0003.14
2023-07-04 03:20:00,SystemResetWarning,0831.5,4.98,000.00,028.9,026.8,000.0,037.4,030.5,18.6,0000.0,0005.44,0003.45,0003.16
2023-07-04 03:21:00,SystemResetWarning,0831.4,4.99,000.00,028.9,027.1,000.0,037.4,030.6,18.6,0000.0,0005.53,0003.48,0003.18
2023-07-04 03:22:00,SystemResetWarning,0831.5,5.02,000.00,029.0,027.4,000.0,037.4,030.7,18.6,0000.0,0005.70,0003.54,0003.22
2023-07-04 03:23:00,SystemResetWarning,0831.4,4.99,000.00,029.0,027.6,000.0,037.4,030.7,18.5,0000.0,0005.72,0003.56,0003.25
2023-07-04 03:24:00,SystemResetWarning,0831.5,5.00,000.00,029.1,027.8,000.0,037.5,030.8,18.7,0000.0,0005.55,0003.55,0003.27
2023-07-04 03:25:00,SystemResetWarning,0831.4,5.00,000.00,029.1,027.9,000.0,037.5,030.8,18.7,0000.0,0005.60,0003.56,0003.27
2023-07-04 03:26:00,SystemResetWarning,0831.4,4.99,000.00,029.1,027.5,000.0,037.5,030.8,18.7,0000.0,0005.70,0003.59,0003.28
2023-07-04 03:27:00,SystemResetWarning,0831.4,5.01,000.00,029.1,025.7,000.0,037.3,030.6,18.8,0000.0,0006.00,0003.60,0003.30
2023-07-04 03:28:00,SystemResetWarning,0831.4,5.01,000.00,029.0,025.4,000.0,037.3,030.4,18.6,0000.0,0006.78,0003.61,0003.31
2023-07-04 03:29:00,SystemResetWarning,0831.3,5.01,000.00,028.9,025.6,000.0,037.3,030.3,18.6,0000.0,0007.44,0003.63,0003.33
2023-07-04 03:30:00,SystemResetWarning,0831.4,4.98,000.00,028.9,026.0,000.0,037.4,030.3,18.6,0000.0,0007.72,0003.67,0003.36
2023-07-04 03:31:00,SystemResetWarning,0831.3,5.00,000.00,028.9,026.4,000.0,037.4,030.4,18.6,0000.0,0008.42,0003.70,0003.38
2023-07-04 03:32:00,SystemResetWarning,0831.4,5.01,000.00,028.9,026.7,000.0,037.4,030.5,18.6,0000.0,0008.41,0003.73,0003.40
2023-07-04 03:33:00,SystemResetWarning,0831.3,5.01,000.00,029.0,027.0,000.0,037.4,030.6,18.6,0000.0,0008.32,0003.69,0003.40
2023-07-04 03:34:00,SystemResetWarning,0831.4,4.99,000.00,029.0,027.3,000.0,037.4,030.7,18.8,0000.0,0008.26,0003.68,0003.39
2023-07-04 03:35:00,SystemResetWarning,0831.4,4.99,000.00,029.0,027.5,000.0,037.5,030.7,18.9,0000.0,0008.52,0003.70,0003.40
2023-07-04 03:36:00,SystemResetWarning,0831.3,5.00,000.00,029.1,027.7,000.0,037.5,030.8,18.5,0000.0,0008.69,0003.71,0003.41
2023-07-04 03:37:00,SystemResetWarning,0831.3,5.00,000.00,029.1,027.9,000.0,037.5,030.8,18.3,0000.0,0008.67,0003.69,0003.41
2023-07-04 03:38:00,SystemResetWarning,0831.3,5.00,000.00,029.1,027.8,000.0,037.5,030.9,18.2,0000.0,0008.40,0003.70,0003.41
2023-07-04 03:39:00,SystemResetWarning,0831.3,5.00,000.00,029.1,026.1,000.0,037.4,030.7,18.3,0000.0,0007.99,0003.72,0003.42
2023-07-04 03:40:00,SystemResetWarning,0831.3,5.01,000.00,029.1,025.5,000.0,037.3,030.5,18.4,0000.0,0007.41,0003.70,0003.42
2023-07-04 03:41:00,SystemResetWarning,0831.3,5.01,000.00,029.0,025.6,000.0,037.3,030.3,18.5,0000.0,0007.21,0003.67,0003.42
2023-07-04 03:42:00,SystemResetWarning,0831.3,4.99,000.00,028.9,026.0,000.0,037.4,030.4,18.6,0000.0,0006.11,0003.66,0003.42
2023-07-04 03:43:00,SystemResetWarning,0831.3,5.00,000.00,028.9,026.3,000.0,037.4,030.4,18.8,0000.0,0006.05,0003.63,0003.42
2023-07-04 03:44:00,SystemResetWarning,0831.3,5.01,000.00,029.0,026.7,000.0,037.4,030.5,19.5,0000.0,0006.13,0003.64,0003.41
2023-07-04 03:45:00,SystemResetWarning,0831.4,5.00,000.00,029.0,027.0,000.0,037.4,030.6,20.2,0000.0,0006.18,0003.64,0003.41
2023-07-04 03:46:00,SystemResetWarning,0831.3,4.98,000.00,029.0,027.3,000.0,037.5,030.7,20.7,0000.0,0005.98,0003.63,0003.41
2023-07-04 03:47:00,SystemResetWarning,0831.4,5.01,000.00,029.0,027.5,000.0,037.5,030.7,20.8,0000.0,0005.49,0003.64,0003.41
2023-07-04 03:48:00,SystemResetWarning,0831.4,5.01,000.00,029.1,027.7,000.0,037.5,030.8,21.1,0000.0,0005.47,0003.63,0003.41
2023-07-04 03:49:00,SystemResetWarning,0831.5,4.99,000.00,029.1,027.9,000.0,037.5,030.8,21.2,0000.0,0005.59,0003.66,0003.41
2023-07-04 03:50:00,SystemResetWarning,0831.5,4.99,000.00,029.2,027.4,000.0,037.5,030.9,21.3,0000.0,0005.65,0003.67,0003.41
2023-07-04 03:51:00,SystemResetWarning,0831.4,5.00,000.00,029.1,025.7,000.0,037.4,030.7,21.4,0000.0,0005.80,0003.69,0003.41
2023-07-04 03:52:00,SystemResetWarning,0831.4,5.01,000.00,029.1,025.4,000.0,037.3,030.5,21.6,0000.0,0006.87,0003.71,0003.41
2023-07-04 03:53:00,SystemResetWarning,0831.5,5.01,000.00,029.0,025.6,000.0,037.4,030.4,21.7,0000.0,0006.70,0003.71,0003.42
2023-07-04 03:54:00,SystemResetWarning,0831.5,5.00,000.00,029.0,026.0,000.0,037.4,030.4,21.8,0000.0,0006.54,0003.70,0003.42
2023-07-04 03:55:00,SystemResetWarning,0831.5,4.99,000.00,029.0,026.4,000.0,037.4,030.5,21.7,0000.0,0006.95,0003.71,0003.42
2023-07-04 03:56:00,SystemResetWarning,0831.6,5.00,000.00,029.0,026.7,000.0,037.4,030.5,21.7,0000.0,0007.05,0003.70,0003.43
2023-07-04 03:57:00,SystemResetWarning,0831.6,5.01,000.00,029.0,027.1,000.0,037.5,030.6,21.9,0000.0,0007.37,0003.70,0003.42
2023-07-04 03:58:00,SystemResetWarning,0831.6,5.00,000.00,029.0,027.3,000.0,037.5,030.7,21.5,0000.0,0007.38,0003.71,0003.42
2023-07-04 03:59:00,SystemResetWarning,0831.6,4.99,000.00,029.1,027.6,000.0,037.5,030.8,20.6,0000.0,0007.46,0003.75,0003.42
